Muskegon Lake Weather Center

Moon Phase Calendar



Muskegon Lake Water Level
Online Cameras

 


      

Current Conditions in North Muskegon
4/16/2024 7:11:54 PM

71°F
Feels Like 69
Clouds
Humidity
28%
Pressure
29.85"
Wind
19.6 mph (E)
Dew Point
36°F
UV Index
0/10 (Low)
Visibility
6 mi

Hourly Forecast

Date & Time Tue, Apr 16
7:00 PM
Tue, Apr 16
8:00 PM
Tue, Apr 16
9:00 PM
Tue, Apr 16
10:00 PM
Tue, Apr 16
11:00 PM
Wed, Apr 17
12:00 AM
Wed, Apr 17
1:00 AM
Wed, Apr 17
2:00 AM
Wed, Apr 17
3:00 AM
Wed, Apr 17
4:00 AM
Wed, Apr 17
5:00 AM
Wed, Apr 17
6:00 AM
Wed, Apr 17
7:00 AM
Wed, Apr 17
8:00 AM
Wed, Apr 17
9:00 AM
Wed, Apr 17
10:00 AM
Wed, Apr 17
11:00 AM
Wed, Apr 17
12:00 PM
Wed, Apr 17
1:00 PM
Wed, Apr 17
2:00 PM
Wed, Apr 17
3:00 PM
Wed, Apr 17
4:00 PM
Wed, Apr 17
5:00 PM
Wed, Apr 17
6:00 PM
Wed, Apr 17
7:00 PM
Wed, Apr 17
8:00 PM
Wed, Apr 17
9:00 PM
Wed, Apr 17
10:00 PM
Wed, Apr 17
11:00 PM
Thu, Apr 18
12:00 AM
Thu, Apr 18
1:00 AM
Thu, Apr 18
2:00 AM
Thu, Apr 18
3:00 AM
Thu, Apr 18
4:00 AM
Thu, Apr 18
5:00 AM
Thu, Apr 18
6:00 AM
Thu, Apr 18
7:00 AM
Thu, Apr 18
8:00 AM
Thu, Apr 18
9:00 AM
Thu, Apr 18
10:00 AM
Thu, Apr 18
11:00 AM
Thu, Apr 18
12:00 PM
Thu, Apr 18
1:00 PM
Thu, Apr 18
2:00 PM
Thu, Apr 18
3:00 PM
Thu, Apr 18
4:00 PM
Thu, Apr 18
5:00 PM
Thu, Apr 18
6:00 PM
Condition
Clouds

Rain

Clouds

Rain

Rain

Rain

Rain

Rain

Rain

Rain

Rain

Rain

Rain

Rain

Rain

Rain

Clouds

Clouds

Clouds

Clouds

Clouds

Clouds

Clouds

Rain

Clouds

Clouds

Clouds

Clouds

Clouds

Clouds

Clouds

Clouds

Clouds

Clouds

Clouds

Clouds

Clouds

Clouds

Clear

Clouds

Clouds

Clouds

Clouds

Clouds

Clouds

Clouds

Clouds

Clouds
Temperature 71°F69°F66°F62°F58°F54°F51°F51°F53°F54°F55°F56°F58°F60°F62°F59°F58°F58°F56°F54°F54°F56°F53°F54°F52°F51°F49°F49°F48°F47°F47°F46°F46°F47°F47°F46°F45°F46°F47°F49°F50°F52°F53°F51°F49°F50°F49°F48°F
Feels Like 69°F67°F64°F61°F56°F52°F50°F50°F52°F54°F54°F56°F58°F60°F61°F58°F57°F57°F55°F53°F53°F56°F52°F53°F51°F50°F43°F42°F42°F41°F40°F39°F40°F40°F41°F42°F39°F41°F43°F45°F47°F50°F51°F49°F46°F48°F47°F45°F
Cloudiness 75%79%85%90%95%100%100%100%81%89%93%85%86%89%100%99%99%100%100%100%98%86%91%90%89%88%100%100%100%100%100%100%100%100%100%100%86%80%4%39%59%69%74%79%100%100%100%100%
Visibility 6 mi5 mi6 mi6 mi3 mi2 mi1 mi6 mi6 mi6 mi6 mi5 mi6 mi4 mi6 mi6 mi6 mi6 mi6 mi6 mi6 mi6 mi6 mi6 mi6 mi6 mi6 mi6 mi6 mi6 mi6 mi6 mi6 mi6 mi6 mi6 mi6 mi6 mi6 mi6 mi6 mi6 mi6 mi6 mi6 mi6 mi6 mi6 mi
Precipitation 0%20%80%100%100%100%100%100%97%100%100%100%100%100%100%100%80%80%80%80%0%0%0%20%0%0%0%0%0%0%0%0%0%0%0%0%0%0%0%0%0%0%0%0%0%0%0%0%
Humidity 28%33%42%52%64%77%94%91%90%93%95%97%95%90%83%87%78%72%77%79%80%79%84%80%80%79%82%84%84%83%83%83%83%80%79%79%85%83%77%70%66%61%59%63%70%67%69%74%
Dew Point 36°F39°F42°F44°F46°F46°F49°F49°F50°F53°F53°F55°F57°F57°F56°F55°F51°F49°F48°F48°F48°F50°F49°F48°F46°F45°F44°F44°F43°F42°F41°F41°F41°F41°F40°F40°F40°F41°F40°F39°F39°F39°F39°F39°F39°F39°F40°F40°F
Pressure 29.85"29.85"29.85"29.83"29.8"29.8"29.77"29.77"29.71"29.68"29.68"29.65"29.62"29.59"29.56"29.56"29.56"29.56"29.56"29.59"29.59"29.59"29.59"29.62"29.65"29.68"29.71"29.77"29.8"29.83"29.85"29.85"29.88"29.91"29.94"29.94"29.97"30"30"30"30.03"30.03"30.03"30.03"30.03"30"30"30"
Wind Speed 20.7 mph21.1 mph21.6 mph23.5 mph20.4 mph17.3 mph21.6 mph18.8 mph17.4 mph17.1 mph16.4 mph15.7 mph13 mph13.2 mph20 mph20.1 mph17.4 mph16.5 mph14.6 mph14.5 mph15.1 mph17.1 mph15.2 mph16.7 mph14.6 mph18.5 mph18.1 mph17.6 mph16.5 mph17.1 mph17.4 mph15.6 mph12.9 mph15.1 mph14 mph9.9 mph9.8 mph9.6 mph9.5 mph9.1 mph7.1 mph8.4 mph7.3 mph8.4 mph6.6 mph5.5 mph5.6 mph6.2 mph
Wind
Direction
105°
ESE
103°
ESE
104°
ESE
100°
E
115°
ESE
119°
ESE
99°
E
108°
ESE
104°
ESE
114°
ESE
116°
ESE
118°
ESE
124°
SE
150°
SSE
175°
S
189°
S
206°
SSW
211°
SSW
213°
SSW
214°
SW
212°
SSW
219°
SW
219°
SW
238°
WSW
258°
WSW
258°
WSW
258°
WSW
259°
W
266°
W
275°
W
280°
W
284°
WNW
286°
WNW
286°
WNW
291°
WNW
299°
WNW
291°
WNW
288°
WNW
289°
WNW
303°
WNW
298°
WNW
285°
WNW
266°
W
257°
WSW
261°
W
259°
W
262°
W
288°
WNW

Daily Forecast

Date High Low Precip. Humidity
Today
Apr 16

Rain
71 °F
44 °F
100%
40%
Wednesday
Apr 17

Rain
62 °F
48 °F
100%
77%
Thursday
Apr 18

Rain
53 °F
45 °F
100%
59%
Friday
Apr 19

Rain
50 °F
41 °F
100%
45%
Saturday
Apr 20

Rain
44 °F
38 °F
20%
53%
Sunday
Apr 21

Clear
49 °F
37 °F
0%
47%
Monday
Apr 22

Rain
53 °F
42 °F
100%
54%
Tuesday
Apr 23

Rain
47 °F
36 °F
100%
44%
Wednesday
Apr 24

Clouds
50 °F
30 °F
0%
34%
Thursday
Apr 25

Snow
52 °F
38 °F
20%
34%
Friday
Apr 26

Clear
54 °F
38 °F
0%
45%
Saturday
Apr 27

Clouds
54 °F
44 °F
0%
54%
Sunday
Apr 28

Rain
60 °F
52 °F
100%
69%
Monday
Apr 29

Rain
64 °F
54 °F
100%
88%
Tuesday
Apr 30

Clouds
63 °F
48 °F
0%
46%
Wednesday
May 1

Clouds
66 °F
47 °F
0%
50%

Temperature 8-14 Day Outlook



Precipitation 8-14 Day Outlook




Quick Links
Muskegon Lake News
Muskegon Lake Photos
Muskegon Lake Videos




About Us
Contact Us
Site Map
Search Site
Advertise With Us
   
Muskegon.USLakes.info
THE MUSKEGON LAKE WEBSITE

Copyright 2024, Lakes Online
Privacy    |    Legal